| time (UTC) | temp C | wind direction | speed KPH | gust KPH | rain 1hr cm | rain 24hr cm | rain mn cm | humidity % | barometer mb |
| 20260502214128 | 11 | 0 | 1.6 | 0.0 | 0.00 | 0.00 | 0.00 | 55 | 982.0 |
| 20260502211128 | 11 | 0 | 1.6 | 0.0 | 0.00 | 0.00 | 0.00 | 54 | 983.0 |
| 20260502204128 | 11 | 0 | 0.0 | 0.0 | 0.00 | 0.00 | 0.00 | 53 | 983.0 |
| 20260502201128 | 12 | 0 | 0.0 | 0.0 | 0.00 | 0.00 | 0.00 | 50 | 983.0 |
| 20260502194128 | 13 | 0 | 0.0 | 0.0 | 0.00 | 0.00 | 0.00 | 47 | 982.0 |
| 20260502191128 | 14 | 0 | 0.0 | 0.0 | 0.00 | 0.00 | 0.00 | 43 | 982.0 |
| 20260502184128 | 16 | 0 | 1.6 | 0.0 | 0.00 | 0.00 | 0.00 | 38 | 983.0 |
| 20260502181128 | 18 | 0 | 1.6 | 0.0 | 0.00 | 0.00 | 0.00 | 33 | 983.0 |
| 20260502164128 | 24 | 0 | 6.4 | 0.0 | 0.00 | 0.00 | 0.00 | 21 | 982.0 |
| 20260502161128 | 25 | 0 | 4.8 | 0.0 | 0.00 | 0.00 | 0.00 | 20 | 983.0 |
| 20260502151128 | 26 | 0 | 4.8 | 0.0 | 0.00 | 0.00 | 0.00 | 17 | 984.0 |
| 20260502121128 | 24 | 0 | 4.8 | 0.0 | 0.00 | 0.00 | 0.00 | 19 | 986.0 |
| 20260502114128 | 25 | 0 | 4.8 | 0.0 | 0.00 | 0.00 | 0.00 | 22 | 987.0 |
| 20260502111128 | 23 | 0 | 4.8 | 0.0 | 0.00 | 0.00 | 0.00 | 25 | 987.0 |
| 20260502104128 | 23 | 0 | 4.8 | 0.0 | 0.00 | 0.00 | 0.00 | 26 | 987.0 |
| 20260502101128 | 22 | 0 | 8.0 | 0.0 | 0.00 | 0.00 | 0.00 | 27 | 988.0 |
| 20260502091128 | 21 | 0 | 3.2 | 0.0 | 0.00 | 0.00 | 0.00 | 33 | 988.0 |
| 20260502071128 | 12 | 0 | 4.8 | 0.0 | 0.00 | 0.00 | 0.00 | 57 | 990.0 |
| 20260502064128 | 10 | 0 | 3.2 | 0.0 | 0.00 | 0.00 | 0.00 | 66 | 989.0 |
| 20260502061128 | 7 | 0 | 1.6 | 0.0 | 0.00 | 0.00 | 0.00 | 75 | 989.0 |
| 20260502054128 | 6 | 0 | 0.0 | 0.0 | 0.00 | 0.00 | 0.00 | 82 | 989.0 |
| 20260502051128 | 4 | 0 | 0.0 | 0.0 | 0.00 | 0.00 | 0.00 | 83 | 989.0 |
| 20260502044128 | 3 | 0 | 0.0 | 0.0 | 0.00 | 0.00 | 0.00 | 83 | 989.0 |
| 20260502041128 | 3 | 0 | 1.6 | 0.0 | 0.00 | 0.00 | 0.00 | 83 | 989.0 |
| 20260502034128 | 3 | 0 | 0.0 | 0.0 | 0.00 | 0.00 | 0.00 | 82 | 989.0 |
| 20260502031128 | 3 | 0 | 0.0 | 0.0 | 0.00 | 0.00 | 0.00 | 81 | 990.0 |
| 20260502024128 | 4 | 0 | 0.0 | 0.0 | 0.00 | 0.00 | 0.00 | 81 | 990.0 |
| 20260502021128 | 4 | 0 | 3.2 | 0.0 | 0.00 | 0.00 | 0.00 | 81 | 990.0 |
| 20260502014128 | 5 | 0 | 1.6 | 0.0 | 0.00 | 0.00 | 0.00 | 80 | 990.0 |
| 20260502011128 | 5 | 0 | 0.0 | 0.0 | 0.00 | 0.00 | 0.00 | 79 | 990.0 |
| 20260502004128 | 5 | 0 | 1.6 | 0.0 | 0.00 | 0.00 | 0.00 | 78 | 990.0 |
| 20260502001128 | 5 | 0 | 1.6 | 0.0 | 0.00 | 0.00 | 0.00 | 77 | 990.0 |
| 20260501234128 | 6 | 0 | 1.6 | 0.0 | 0.00 | 0.00 | 0.00 | 76 | 990.0 |
| 20260501231128 | 6 | 0 | 4.8 | 0.0 | 0.00 | 0.00 | 0.00 | 75 | 990.0 |
| 20260501224128 | 6 | 0 | 3.2 | 0.0 | 0.00 | 0.00 | 0.00 | 74 | 990.0 |
| 20260501221128 | 7 | 0 | 0.0 | 0.0 | 0.00 | 0.00 | 0.00 | 72 | 991.0 |